Starlink 5467

operational
NORAD ID: 55660 Int'l Des: 2023-021 Owner: SPXS Country: US Constellation: starlink
LEOCIRCULAR

关于 Starlink 5467

正在加载描述...

实时位置

正在加载3D地球...

即将过境

高度历史

Altitude vs Time

uPlot chart will show altitude changes over time

两行轨道根数

1 55660U 23021AJ 25354.41203037 .00000417 00000-0 42709-4 0 9997
2 55660 70.0005 4.1870 0002816 264.6336 95.4501 14.98326872157415
Epoch: Dec 20, 2025 • Age: 10 hours

当前状态

高度 585.1 km
速度 7.57 km/s
星下点 67.85°N, 38.41°E
发射日期 Feb 17, 2023
运行时间 2.8 years
类型 internet

技术详情

分类 Payload
质量 305.00 kg
干质量 290.00 kg
总质量 305.00 kg
长度 0.20 m
直径 2.80 m
跨度 9.00 m
形状 Box + pan
制造商 SPXS
平台类型 Starlink
阶段状态 In Orbit
所有者/国家 SPXS/US

大型星座

Loading constellations...